EZY81QC LGSR-EGKK

Flight info

Callsign EZY81QC
Flight time N/A
Altitude 36000
Route MADEX UL53 KOR UL613 XANIS DCT VJOSA DCT PAPIZ DCT GONOT/N0439F380 DCT CRAYE DCT GISAM DCT RILIM DCT LABIN DCT VIC DCT RESIA DCT ELMUR DCT RIPUS DCT DITON DCT HOC DCT LUL DCT RLP DCT ROTSI DCT KOTUN DCT NINAL DCT KESAX DCT KUNAV
Aircraft A320/M-SDE3FGHIRWY/LB1

Departure

Time 2026-05-04 10:16
Airport Santorini International Airport (LGSR)

Arrival

Time N/A
Airport London Gatwick Airport (EGKK)
Time Latitude Longitude Altitude Speed Heading
2026-05-04 09:42 36.40341 25.47378 90 ft 0 kts 249°
2026-05-04 10:02 36.40341 25.47379 90 ft 0 kts 249°
2026-05-04 10:05 36.40342 25.47379 90 ft 0 kts 249°
2026-05-04 10:06 36.40341 25.47379 90 ft 0 kts 249°
2026-05-04 10:06 36.40342 25.47379 90 ft 0 kts 249°
2026-05-04 10:08 36.40361 25.47429 91 ft 4 kts 197°
2026-05-04 10:08 36.40385 25.47426 90 ft 4 kts 159°
2026-05-04 10:08 36.40376 25.47431 90 ft 4 kts 159°
2026-05-04 10:08 36.40367 25.47435 90 ft 2 kts 159°
2026-05-04 10:10 36.40365 25.47436 90 ft 2 kts 159°
2026-05-04 10:10 36.40328 25.47453 90 ft 8 kts 159°
2026-05-04 10:10 36.40273 25.47483 89 ft 9 kts 140°
2026-05-04 10:11 36.40276 25.47555 89 ft 8 kts 75°
2026-05-04 10:11 36.40247 25.47594 90 ft 7 kts 163°
2026-05-04 10:11 36.40177 25.47626 90 ft 14 kts 159°
2026-05-04 10:11 36.40091 25.47667 91 ft 13 kts 159°
2026-05-04 10:12 36.40010 25.47704 88 ft 12 kts 160°
2026-05-04 10:12 36.39920 25.47746 87 ft 14 kts 159°
2026-05-04 10:12 36.39831 25.47788 85 ft 14 kts 159°
2026-05-04 10:12 36.39743 25.47829 83 ft 14 kts 159°
2026-05-04 10:13 36.39653 25.47872 80 ft 14 kts 159°
2026-05-04 10:13 36.39559 25.47916 69 ft 15 kts 159°
2026-05-04 10:13 36.39462 25.47961 70 ft 15 kts 159°
2026-05-04 10:13 36.39353 25.48014 65 ft 21 kts 160°
2026-05-04 10:14 36.39261 25.48055 64 ft 22 kts 159°
2026-05-04 10:14 36.39117 25.48125 56 ft 23 kts 158°
2026-05-04 10:16 36.41673 25.47164 1101 ft 152 kts 342°
2026-05-04 10:16 36.42715 25.46820 1776 ft 164 kts 343°
2026-05-04 10:16 36.43898 25.46450 2085 ft 186 kts 345°
2026-05-04 10:16 36.45027 25.46110 2348 ft 207 kts 345°
2026-05-04 10:17 36.45410 25.45995 2441 ft 214 kts 345°
2026-05-04 10:17 36.46927 25.45534 3024 ft 231 kts 345°
2026-05-04 10:19 36.58393 25.41984 9203 ft 254 kts 345°
2026-05-04 10:19 36.60127 25.41448 10045 ft 258 kts 345°
2026-05-04 10:19 36.61903 25.40894 10566 ft 273 kts 345°
2026-05-04 10:19 36.63771 25.40108 10810 ft 294 kts 334°
2026-05-04 10:20 36.65526 25.38721 11361 ft 304 kts 321°
2026-05-04 10:20 36.66989 25.36828 12037 ft 310 kts 308°
2026-05-04 10:20 36.68242 25.34609 12751 ft 315 kts 307°
2026-05-04 10:20 36.69502 25.32362 13481 ft 319 kts 307°
2026-05-04 10:21 36.70784 25.30082 14143 ft 323 kts 307°
2026-05-04 10:21 36.72081 25.27775 14799 ft 326 kts 307°
2026-05-04 10:21 36.73370 25.25476 15438 ft 329 kts 306°
2026-05-04 10:21 36.74687 25.23121 16083 ft 332 kts 306°
2026-05-04 10:22 36.77357 25.18344 17352 ft 338 kts 306°
2026-05-04 10:22 36.78711 25.15923 17986 ft 342 kts 306°
2026-05-04 10:22 36.80077 25.13481 18587 ft 344 kts 306°
2026-05-04 10:23 36.81451 25.11020 19129 ft 347 kts 306°
2026-05-04 10:23 36.82836 25.08533 19665 ft 350 kts 306°
2026-05-04 10:25 36.92746 24.90710 23405 ft 364 kts 306°
2026-05-04 10:25 36.94193 24.88097 23881 ft 366 kts 306°
2026-05-04 10:25 36.95643 24.85472 24318 ft 367 kts 306°
2026-05-04 10:25 36.97094 24.82843 24754 ft 368 kts 306°
2026-05-04 10:26 36.98532 24.80236 25178 ft 369 kts 306°
2026-05-04 10:26 36.99990 24.77596 25602 ft 370 kts 306°
2026-05-04 10:26 37.01457 24.74944 26033 ft 371 kts 306°
2026-05-04 10:26 37.02926 24.72288 26442 ft 372 kts 306°
2026-05-04 10:27 37.04397 24.69622 26848 ft 373 kts 306°
2026-05-04 10:27 37.05870 24.66946 27258 ft 374 kts 306°
2026-05-04 10:27 37.07345 24.64264 27660 ft 375 kts 306°
2026-05-04 10:27 37.08825 24.61570 28035 ft 376 kts 306°
2026-05-04 10:28 37.10314 24.58864 28407 ft 378 kts 306°
2026-05-04 10:28 37.11809 24.56150 28774 ft 379 kts 306°
2026-05-04 10:28 37.13308 24.53419 29151 ft 381 kts 306°
2026-05-04 10:28 37.14814 24.50674 29502 ft 383 kts 306°
2026-05-04 10:29 37.16323 24.47921 29824 ft 384 kts 307°
2026-05-04 10:29 37.17836 24.45154 30151 ft 386 kts 306°
2026-05-04 10:29 37.19358 24.42365 30450 ft 388 kts 306°
2026-05-04 10:29 37.20886 24.39563 30689 ft 390 kts 306°
2026-05-04 10:30 37.22396 24.36716 30920 ft 393 kts 305°
2026-05-04 10:30 37.23871 24.33817 31151 ft 395 kts 304°
2026-05-04 10:30 37.25331 24.30882 31382 ft 398 kts 304°
2026-05-04 10:30 37.26791 24.27933 31683 ft 398 kts 304°
2026-05-04 10:31 37.28253 24.24984 32013 ft 398 kts 304°
2026-05-04 10:31 37.29722 24.22038 32316 ft 398 kts 304°
2026-05-04 10:32 37.38560 24.04405 34126 ft 399 kts 304°
2026-05-04 10:33 37.40039 24.01449 34390 ft 399 kts 304°
2026-05-04 10:33 37.41520 23.98487 34648 ft 399 kts 304°
2026-05-04 10:33 37.42999 23.95526 34902 ft 399 kts 304°
2026-05-04 10:33 37.44475 23.92567 35134 ft 400 kts 304°
2026-05-04 10:34 37.45951 23.89603 35361 ft 400 kts 304°
2026-05-04 10:34 37.47428 23.86634 35589 ft 400 kts 304°
2026-05-04 10:34 37.48901 23.83667 35812 ft 400 kts 304°
2026-05-04 10:34 37.50378 23.80691 36019 ft 400 kts 304°
2026-05-04 10:35 37.51856 23.77713 36164 ft 401 kts 304°
2026-05-04 10:35 37.53325 23.74748 36185 ft 398 kts 304°
2026-05-04 10:35 37.56244 23.68854 36185 ft 396 kts 304°
2026-05-04 10:36 37.59151 23.62974 36182 ft 395 kts 304°
2026-05-04 10:36 37.62034 23.57118 36180 ft 395 kts 304°
2026-05-04 10:37 37.64929 23.51226 36177 ft 395 kts 304°
2026-05-04 10:37 37.67827 23.45330 36183 ft 395 kts 304°
2026-05-04 10:39 37.77965 23.24640 36186 ft 396 kts 304°
2026-05-04 10:40 37.80850 23.18713 36168 ft 396 kts 304°
2026-05-04 10:40 37.83741 23.12783 36183 ft 396 kts 304°
2026-05-04 10:41 37.86634 23.06848 36175 ft 396 kts 304°
2026-05-04 10:41 37.89512 23.00907 36179 ft 396 kts 304°
2026-05-04 10:42 37.92406 22.94975 36176 ft 395 kts 308°
2026-05-04 10:42 37.96149 22.89970 36177 ft 391 kts 319°
2026-05-04 10:43 38.00168 22.85324 36175 ft 391 kts 319°
2026-05-04 10:45 38.16185 22.66662 36168 ft 392 kts 319°
2026-05-04 10:45 38.20208 22.61998 36175 ft 392 kts 319°
2026-05-04 10:46 38.24231 22.57315 36170 ft 392 kts 319°
2026-05-04 10:46 38.28248 22.52623 36172 ft 392 kts 319°
2026-05-04 10:47 38.32271 22.47926 36168 ft 393 kts 319°
2026-05-04 10:47 38.36294 22.43205 36174 ft 393 kts 319°
2026-05-04 10:49 38.52405 22.24282 36168 ft 394 kts 319°
2026-05-04 10:50 38.56433 22.19539 36165 ft 394 kts 319°
2026-05-04 10:52 38.72189 22.00027 36166 ft 395 kts 318°
2026-05-04 10:52 38.76137 21.95125 36168 ft 395 kts 318°
2026-05-04 10:54 38.91906 21.75416 36172 ft 395 kts 318°
2026-05-04 10:56 39.07639 21.55643 36177 ft 394 kts 319°
2026-05-04 10:57 39.11550 21.50703 36178 ft 393 kts 319°
2026-05-04 10:57 39.15457 21.45768 36181 ft 393 kts 319°
2026-05-04 10:58 39.19324 21.40860 36179 ft 392 kts 319°
2026-05-04 10:58 39.23206 21.35937 36181 ft 391 kts 319°
2026-05-04 10:59 39.27079 21.31013 36172 ft 390 kts 319°
2026-05-04 10:59 39.30948 21.26092 36174 ft 390 kts 319°
2026-05-04 11:00 39.34810 21.21163 36173 ft 390 kts 319°
2026-05-04 11:02 39.49545 21.02305 36156 ft 388 kts 319°
2026-05-04 11:05 39.78162 20.65308 36144 ft 387 kts 319°
2026-05-04 11:06 39.81969 20.60352 36138 ft 387 kts 319°
2026-05-04 11:06 39.85779 20.55397 36133 ft 387 kts 319°
2026-05-04 11:10 40.11199 20.18935 36117 ft 390 kts 315°
2026-05-04 11:12 40.25135 19.97211 36137 ft 390 kts 314°
2026-05-04 11:12 40.28602 19.91780 36124 ft 389 kts 314°
2026-05-04 11:13 40.32066 19.86327 36128 ft 389 kts 314°
2026-05-04 11:13 40.35529 19.80878 36129 ft 389 kts 314°
2026-05-04 11:14 40.38988 19.75422 36137 ft 389 kts 314°
2026-05-04 11:16 40.52758 19.53630 36136 ft 388 kts 314°
2026-05-04 11:16 40.56196 19.48143 36135 ft 388 kts 314°
2026-05-04 11:17 40.59633 19.42659 36137 ft 388 kts 314°
2026-05-04 11:19 40.73338 19.20725 36149 ft 388 kts 313°
2026-05-04 11:19 40.76762 19.15216 36146 ft 388 kts 313°
2026-05-04 11:20 40.80186 19.09685 36146 ft 389 kts 313°
2026-05-04 11:20 40.83612 19.04157 36150 ft 389 kts 313°
2026-05-04 11:22 40.97290 18.81956 36152 ft 389 kts 313°
2026-05-04 11:23 41.00679 18.76425 36153 ft 389 kts 313°
2026-05-04 11:25 41.12600 18.56898 36148 ft 389 kts 312°
2026-05-04 11:25 41.16002 18.51291 36144 ft 390 kts 312°
2026-05-04 11:27 41.33501 18.29322 36176 ft 387 kts 324°
2026-05-04 11:28 41.37836 18.25083 36175 ft 387 kts 323°
2026-05-04 11:28 41.42171 18.20835 36173 ft 387 kts 323°
2026-05-04 11:29 41.46503 18.16614 36171 ft 387 kts 324°
2026-05-04 11:29 41.50855 18.12378 36165 ft 387 kts 324°
2026-05-04 11:33 41.82387 17.84355 36161 ft 389 kts 326°
2026-05-04 11:33 41.86894 17.80320 36161 ft 390 kts 326°
2026-05-04 11:34 41.91394 17.76258 36160 ft 389 kts 323°
2026-05-04 11:34 41.95422 17.71400 36155 ft 389 kts 317°
2026-05-04 11:35 41.99354 17.66457 36150 ft 390 kts 317°
2026-05-04 11:35 42.03317 17.61480 36147 ft 390 kts 317°
2026-05-04 11:36 42.07285 17.56491 36150 ft 390 kts 317°
2026-05-04 11:36 42.11246 17.51480 36151 ft 391 kts 317°
2026-05-04 11:37 42.15211 17.46451 36147 ft 391 kts 317°
2026-05-04 11:37 42.19177 17.41421 36151 ft 392 kts 317°
2026-05-04 11:38 42.23149 17.36379 36148 ft 392 kts 317°
2026-05-04 11:38 42.27122 17.31335 36147 ft 392 kts 317°
2026-05-04 11:39 42.31089 17.26283 36147 ft 392 kts 316°
2026-05-04 11:41 42.44980 17.08482 36144 ft 394 kts 316°
2026-05-04 11:41 42.48936 17.03415 36144 ft 394 kts 316°
2026-05-04 11:42 42.52917 16.98304 36141 ft 394 kts 316°
2026-05-04 11:42 42.56894 16.93175 36142 ft 395 kts 316°
2026-05-04 11:43 42.60870 16.88035 36143 ft 395 kts 316°
2026-05-04 11:43 42.64846 16.82881 36147 ft 395 kts 316°
2026-05-04 11:44 42.68699 16.77538 36143 ft 396 kts 312°
2026-05-04 11:44 42.72358 16.71945 36147 ft 396 kts 311°
2026-05-04 11:45 42.75998 16.66315 36141 ft 396 kts 311°
2026-05-04 11:45 42.79672 16.60722 36134 ft 397 kts 312°
2026-05-04 11:46 42.83353 16.55169 36138 ft 397 kts 312°
2026-05-04 11:46 42.87057 16.49576 36136 ft 397 kts 311°
2026-05-04 11:47 42.90753 16.43966 36139 ft 398 kts 311°
2026-05-04 11:47 42.94443 16.38347 36134 ft 398 kts 311°
2026-05-04 11:48 42.98135 16.32709 36135 ft 399 kts 311°
2026-05-04 11:48 43.01838 16.27050 36134 ft 399 kts 311°
2026-05-04 11:49 43.05541 16.21381 36131 ft 399 kts 311°
2026-05-04 11:49 43.09240 16.15704 36135 ft 400 kts 311°
2026-05-04 11:50 43.12937 16.10026 36135 ft 400 kts 311°
2026-05-04 11:50 43.16602 16.04399 36127 ft 400 kts 311°
2026-05-04 11:51 43.19717 15.99605 36133 ft 401 kts 311°
2026-05-04 11:51 43.24012 15.92949 36140 ft 401 kts 311°
2026-05-04 11:52 43.27703 15.87211 36135 ft 401 kts 311°
2026-05-04 11:52 43.30803 15.82399 36139 ft 401 kts 311°
2026-05-04 11:53 43.34502 15.76651 36138 ft 402 kts 311°
2026-05-04 11:53 43.38183 15.70919 36136 ft 402 kts 310°
2026-05-04 11:55 43.53021 15.47685 36135 ft 404 kts 310°
2026-05-04 11:56 43.56727 15.41855 36125 ft 404 kts 310°
2026-05-04 11:56 43.60410 15.36047 36133 ft 405 kts 310°
2026-05-04 11:57 43.64115 15.30184 36134 ft 405 kts 310°
2026-05-04 11:57 43.67826 15.24305 36135 ft 406 kts 310°
2026-05-04 11:58 43.71532 15.18430 36136 ft 406 kts 310°
2026-05-04 11:58 43.75244 15.12524 36128 ft 406 kts 310°
2026-05-04 11:59 43.78952 15.06610 36134 ft 407 kts 310°
2026-05-04 11:59 43.82661 15.00693 36129 ft 407 kts 310°
2026-05-04 12:00 43.86372 14.94765 36133 ft 408 kts 310°
2026-05-04 12:00 43.90061 14.88847 36130 ft 408 kts 310°
2026-05-04 12:01 43.93775 14.82884 36130 ft 408 kts 310°
2026-05-04 12:02 44.06764 14.61910 36131 ft 410 kts 309°
2026-05-04 12:03 44.10479 14.55893 36131 ft 411 kts 309°
2026-05-04 12:03 44.14200 14.49848 36120 ft 411 kts 309°
2026-05-04 12:04 44.17917 14.43793 36127 ft 411 kts 309°
2026-05-04 12:04 44.21629 14.37732 36138 ft 412 kts 309°
2026-05-04 12:05 44.25329 14.31693 36121 ft 412 kts 309°
2026-05-04 12:05 44.29047 14.25612 36128 ft 412 kts 309°
2026-05-04 12:06 44.32760 14.19509 36127 ft 412 kts 309°
2026-05-04 12:06 44.36467 14.13386 36123 ft 413 kts 309°
2026-05-04 12:07 44.40177 14.07263 36121 ft 413 kts 309°
2026-05-04 12:07 44.43892 14.01126 36118 ft 413 kts 309°
2026-05-04 12:08 44.47609 13.94972 36119 ft 414 kts 309°
2026-05-04 12:08 44.51297 13.88845 36120 ft 414 kts 309°
2026-05-04 12:09 44.55032 13.82629 36125 ft 414 kts 308°
2026-05-04 12:09 44.58710 13.76494 36120 ft 414 kts 308°
2026-05-04 12:10 44.62424 13.70299 36126 ft 414 kts 308°
2026-05-04 12:10 44.66130 13.64078 36122 ft 415 kts 308°
2026-05-04 12:11 44.69833 13.57867 36117 ft 415 kts 308°
2026-05-04 12:11 44.73544 13.51634 36112 ft 415 kts 308°
2026-05-04 12:12 44.77221 13.45440 36109 ft 415 kts 308°
2026-05-04 12:12 44.80920 13.39199 36108 ft 415 kts 308°
2026-05-04 12:14 44.95681 13.14096 36099 ft 416 kts 308°
2026-05-04 12:15 44.99272 13.07694 36101 ft 415 kts 302°
2026-05-04 12:15 45.02467 13.00899 36095 ft 415 kts 302°